| time (UTC) | temp C | wind direction | speed KPH | gust KPH | rain 1hr cm | rain 24hr cm | rain mn cm | humidity % | barometer mb |
| 20260503215811 | 17 | 211 | 16.1 | 38.6 | 0.00 | 0.00 | 0.00 | 43 | 1008.3 |
| 20260503215321 | 16 | 219 | 19.3 | 40.2 | 0.00 | 0.00 | 0.00 | 43 | 1008.3 |
| 20260503214840 | 16 | 207 | 20.9 | 40.2 | 0.00 | 0.00 | 0.00 | 43 | 1008.5 |
| 20260503214335 | 16 | 192 | 17.7 | 38.6 | 0.00 | 0.00 | 0.00 | 43 | 1008.5 |
| 20260503213847 | 16 | 240 | 19.3 | 37.0 | 0.00 | 0.00 | 0.00 | 44 | 1008.5 |
| 20260503213331 | 16 | 209 | 14.5 | 30.6 | 0.00 | 0.00 | 0.00 | 43 | 1008.5 |
| 20260503212820 | 16 | 203 | 20.9 | 38.6 | 0.00 | 0.00 | 0.00 | 43 | 1008.5 |
| 20260503212331 | 16 | 221 | 16.1 | 40.2 | 0.00 | 0.00 | 0.00 | 42 | 1008.5 |
| 20260503211827 | 17 | 218 | 24.1 | 40.2 | 0.00 | 0.00 | 0.00 | 41 | 1008.5 |
| 20260503211317 | 17 | 192 | 20.9 | 45.1 | 0.00 | 0.00 | 0.00 | 41 | 1008.5 |
| 20260503210858 | 17 | 200 | 27.4 | 45.1 | 0.00 | 0.00 | 0.00 | 42 | 1008.5 |
| 20260503210323 | 16 | 206 | 25.7 | 45.1 | 0.00 | 0.00 | 0.00 | 41 | 1008.7 |
| 20260503205838 | 16 | 242 | 25.7 | 45.1 | 0.00 | 0.00 | 0.00 | 41 | 1008.7 |
| 20260503205323 | 17 | 202 | 22.5 | 48.3 | 0.00 | 0.00 | 0.00 | 40 | 1008.7 |
| 20260503204814 | 16 | 219 | 22.5 | 49.9 | 0.00 | 0.00 | 0.00 | 40 | 1008.9 |
| 20260503204329 | 17 | 236 | 27.4 | 49.9 | 0.00 | 0.00 | 0.00 | 39 | 1008.9 |
| 20260503203819 | 17 | 197 | 29.0 | 51.5 | 0.00 | 0.00 | 0.00 | 39 | 1008.9 |
| 20260503203322 | 17 | 202 | 25.7 | 51.5 | 0.00 | 0.00 | 0.00 | 39 | 1009.0 |
| 20260503202815 | 17 | 217 | 25.7 | 43.5 | 0.00 | 0.00 | 0.00 | 38 | 1009.0 |
| 20260503202334 | 17 | 201 | 22.5 | 43.5 | 0.00 | 0.00 | 0.00 | 38 | 1009.0 |
| 20260503201838 | 17 | 207 | 22.5 | 53.1 | 0.00 | 0.00 | 0.00 | 39 | 1009.2 |
| 20260503201330 | 17 | 224 | 14.5 | 45.1 | 0.00 | 0.00 | 0.00 | 40 | 1009.2 |
| 20260503200822 | 17 | 207 | 24.1 | 45.1 | 0.00 | 0.00 | 0.00 | 38 | 1009.2 |
| 20260503200328 | 17 | 223 | 27.4 | 43.5 | 0.00 | 0.00 | 0.00 | 38 | 1009.2 |
| 20260503195813 | 17 | 225 | 25.7 | 46.7 | 0.00 | 0.00 | 0.00 | 39 | 1009.2 |
| 20260503195320 | 17 | 199 | 19.3 | 46.7 | 0.00 | 0.00 | 0.00 | 40 | 1009.2 |
| 20260503194828 | 17 | 201 | 17.7 | 43.5 | 0.00 | 0.00 | 0.00 | 39 | 1009.4 |
| 20260503194321 | 17 | 192 | 17.7 | 37.0 | 0.00 | 0.00 | 0.00 | 39 | 1009.4 |
| 20260503193841 | 17 | 226 | 22.5 | 41.8 | 0.00 | 0.00 | 0.00 | 38 | 1009.4 |
| 20260503193329 | 17 | 204 | 25.7 | 41.8 | 0.00 | 0.00 | 0.00 | 39 | 1009.6 |
| 20260503192838 | 17 | 244 | 20.9 | 41.8 | 0.00 | 0.00 | 0.00 | 38 | 1009.6 |
| 20260503192327 | 17 | 198 | 20.9 | 43.5 | 0.00 | 0.00 | 0.00 | 38 | 1009.6 |
| 20260503191819 | 16 | 196 | 24.1 | 43.5 | 0.00 | 0.00 | 0.00 | 39 | 1009.8 |
| 20260503191341 | 16 | 202 | 22.5 | 40.2 | 0.00 | 0.00 | 0.00 | 39 | 1009.8 |
| 20260503190843 | 17 | 215 | 25.7 | 41.8 | 0.00 | 0.00 | 0.00 | 38 | 1009.8 |
| 20260503190326 | 17 | 264 | 24.1 | 45.1 | 0.00 | 0.00 | 0.00 | 39 | 1010.0 |
| 20260503185834 | 17 | 202 | 25.7 | 45.1 | 0.00 | 0.00 | 0.00 | 39 | 1010.0 |
| 20260503185323 | 17 | 213 | 19.3 | 38.6 | 0.00 | 0.00 | 0.00 | 39 | 1010.0 |
| 20260503184824 | 17 | 229 | 24.1 | 43.5 | 0.00 | 0.00 | 0.00 | 39 | 1010.3 |
| 20260503184313 | 17 | 228 | 12.9 | 43.5 | 0.00 | 0.00 | 0.00 | 39 | 1010.3 |
| 20260503183826 | 17 | 189 | 22.5 | 53.1 | 0.00 | 0.00 | 0.00 | 39 | 1010.3 |
| 20260503183352 | 16 | 211 | 12.9 | 53.1 | 0.00 | 0.00 | 0.00 | 40 | 1010.4 |
| 20260503182822 | 16 | 215 | 22.5 | 41.8 | 0.00 | 0.00 | 0.00 | 38 | 1010.4 |
| 20260503182340 | 16 | 197 | 27.4 | 41.8 | 0.00 | 0.00 | 0.00 | 37 | 1010.4 |
| 20260503181828 | 17 | 190 | 16.1 | 38.6 | 0.00 | 0.00 | 0.00 | 40 | 1010.6 |
| 20260503181321 | 17 | 213 | 17.7 | 38.6 | 0.00 | 0.00 | 0.00 | 38 | 1010.6 |
| 20260503180813 | 16 | 219 | 11.3 | 37.0 | 0.00 | 0.00 | 0.00 | 41 | 1010.6 |
| 20260503180325 | 16 | 252 | 16.1 | 41.8 | 0.00 | 0.00 | 0.00 | 38 | 1010.8 |
| 20260503175816 | 16 | 206 | 22.5 | 45.1 | 0.00 | 0.00 | 0.00 | 40 | 1010.8 |
| 20260503175334 | 16 | 199 | 24.1 | 41.8 | 0.00 | 0.00 | 0.00 | 39 | 1010.8 |
| 20260503174838 | 16 | 240 | 24.1 | 43.5 | 0.00 | 0.00 | 0.00 | 39 | 1011.0 |
| 20260503174322 | 16 | 207 | 20.9 | 37.0 | 0.00 | 0.00 | 0.00 | 41 | 1011.0 |
| 20260503173851 | 16 | 200 | 19.3 | 45.1 | 0.00 | 0.00 | 0.00 | 40 | 1011.0 |
| 20260503173323 | 16 | 184 | 27.4 | 46.7 | 0.00 | 0.00 | 0.00 | 38 | 1011.2 |
| 20260503172816 | 16 | 199 | 17.7 | 35.4 | 0.00 | 0.00 | 0.00 | 39 | 1011.2 |
| 20260503172325 | 16 | 227 | 24.1 | 35.4 | 0.00 | 0.00 | 0.00 | 42 | 1011.2 |
| 20260503171835 | 15 | 200 | 17.7 | 30.6 | 0.00 | 0.00 | 0.00 | 45 | 1011.4 |
| 20260503171325 | 15 | 207 | 12.9 | 37.0 | 0.00 | 0.00 | 0.00 | 44 | 1011.4 |
| 20260503170843 | 15 | 211 | 17.7 | 37.0 | 0.00 | 0.00 | 0.00 | 43 | 1011.4 |
| 20260503170330 | 16 | 219 | 14.5 | 35.4 | 0.00 | 0.00 | 0.00 | 43 | 1011.5 |
| 20260503150815 | 13 | 234 | 12.9 | 29.0 | 0.00 | 0.00 | 0.00 | 51 | 1012.5 |
| 20260503150332 | 13 | 242 | 16.1 | 25.7 | 0.00 | 0.00 | 0.00 | 51 | 1012.6 |
| 20260503140315 | 10 | 234 | 12.9 | 25.7 | 0.00 | 0.00 | 0.00 | 59 | 1013.0 |
| 20260503131346 | 8 | 223 | 8.0 | 30.6 | 0.00 | 0.00 | 0.00 | 62 | 1013.2 |
| 20260503130833 | 8 | 254 | 16.1 | 25.7 | 0.00 | 0.00 | 0.00 | 61 | 1013.2 |
| 20260503130319 | 8 | 207 | 12.9 | 24.1 | 0.00 | 0.00 | 0.00 | 62 | 1013.2 |
| 20260503110817 | 2 | 198 | 0.0 | 3.2 | 0.00 | 0.00 | 0.00 | 74 | 1013.0 |
| 20260503110326 | 2 | 246 | 0.0 | 8.0 | 0.00 | 0.00 | 0.00 | 74 | 1013.0 |
| 20260503090330 | 2 | 263 | 0.0 | 0.0 | 0.00 | 0.00 | 0.00 | 75 | 1013.4 |
| 20260503081338 | 2 | 263 | 0.0 | 0.0 | 0.00 | 0.00 | 0.00 | 77 | 1013.5 |
| 20260503080834 | 2 | 263 | 0.0 | 0.0 | 0.00 | 0.00 | 0.00 | 77 | 1013.5 |
| 20260503080328 | 2 | 263 | 0.0 | 0.0 | 0.00 | 0.00 | 0.00 | 77 | 1013.5 |
| 20260503072845 | 2 | 263 | 0.0 | 0.0 | 0.00 | 0.00 | 0.00 | 77 | 1013.5 |
| 20260503072331 | 3 | 263 | 0.0 | 0.0 | 0.00 | 0.00 | 0.00 | 77 | 1013.5 |
| 20260503071824 | 3 | 263 | 0.0 | 0.0 | 0.00 | 0.00 | 0.00 | 77 | 1013.6 |
| 20260503071333 | 3 | 263 | 0.0 | 0.0 | 0.00 | 0.00 | 0.00 | 77 | 1013.6 |
| 20260503070826 | 3 | 263 | 0.0 | 0.0 | 0.00 | 0.00 | 0.00 | 76 | 1013.6 |
| 20260503070345 | 3 | 263 | 0.0 | 0.0 | 0.00 | 0.00 | 0.00 | 76 | 1013.6 |
| 20260503060340 | 3 | 263 | 0.0 | 0.0 | 0.00 | 0.00 | 0.00 | 75 | 1014.0 |
| 20260503054825 | 3 | 263 | 0.0 | 0.0 | 0.00 | 0.00 | 0.00 | 75 | 1014.1 |
| 20260503054330 | 3 | 263 | 0.0 | 0.0 | 0.00 | 0.00 | 0.00 | 74 | 1014.1 |
| 20260503053815 | 3 | 263 | 0.0 | 0.0 | 0.00 | 0.00 | 0.00 | 74 | 1014.1 |
| 20260503053321 | 4 | 263 | 0.0 | 0.0 | 0.00 | 0.00 | 0.00 | 74 | 1014.1 |
| 20260503052905 | 4 | 263 | 0.0 | 0.0 | 0.00 | 0.00 | 0.00 | 74 | 1014.1 |
| 20260503052334 | 4 | 263 | 0.0 | 0.0 | 0.00 | 0.00 | 0.00 | 74 | 1014.1 |
| 20260503051838 | 4 | 263 | 0.0 | 0.0 | 0.00 | 0.00 | 0.00 | 74 | 1014.2 |
| 20260503051330 | 4 | 263 | 0.0 | 0.0 | 0.00 | 0.00 | 0.00 | 74 | 1014.2 |
| 20260503050817 | 4 | 263 | 0.0 | 0.0 | 0.00 | 0.00 | 0.00 | 73 | 1014.2 |
| 20260503050327 | 4 | 263 | 0.0 | 0.0 | 0.00 | 0.00 | 0.00 | 73 | 1014.2 |
| 20260503045832 | 4 | 263 | 0.0 | 0.0 | 0.00 | 0.00 | 0.00 | 73 | 1014.2 |
| 20260503045335 | 4 | 263 | 0.0 | 0.0 | 0.00 | 0.00 | 0.00 | 72 | 1014.2 |
| 20260503044828 | 4 | 263 | 0.0 | 0.0 | 0.00 | 0.00 | 0.00 | 72 | 1014.1 |
| 20260503044326 | 5 | 263 | 0.0 | 0.0 | 0.00 | 0.00 | 0.00 | 72 | 1014.1 |
| 20260503043823 | 5 | 263 | 0.0 | 0.0 | 0.00 | 0.00 | 0.00 | 72 | 1014.1 |
| 20260503043344 | 5 | 263 | 0.0 | 0.0 | 0.00 | 0.00 | 0.00 | 72 | 1014.1 |
| 20260503042833 | 5 | 263 | 0.0 | 0.0 | 0.00 | 0.00 | 0.00 | 71 | 1014.1 |
| 20260503042337 | 5 | 263 | 0.0 | 0.0 | 0.00 | 0.00 | 0.00 | 71 | 1014.1 |
| 20260503041825 | 5 | 263 | 0.0 | 0.0 | 0.00 | 0.00 | 0.00 | 70 | 1014.2 |
| 20260503041338 | 5 | 263 | 0.0 | 0.0 | 0.00 | 0.00 | 0.00 | 70 | 1014.2 |
| 20260503040840 | 5 | 263 | 0.0 | 0.0 | 0.00 | 0.00 | 0.00 | 69 | 1014.2 |
| 20260503040358 | 5 | 263 | 0.0 | 0.0 | 0.00 | 0.00 | 0.00 | 69 | 1014.2 |
| 20260503035846 | 5 | 263 | 0.0 | 0.0 | 0.00 | 0.00 | 0.00 | 68 | 1014.2 |
| 20260503035313 | 5 | 263 | 0.0 | 0.0 | 0.00 | 0.00 | 0.00 | 68 | 1014.2 |
| 20260503034855 | 5 | 263 | 0.0 | 0.0 | 0.00 | 0.00 | 0.00 | 67 | 1014.3 |
| 20260503034344 | 5 | 263 | 0.0 | 0.0 | 0.00 | 0.00 | 0.00 | 67 | 1014.3 |
| 20260503033815 | 6 | 263 | 0.0 | 0.0 | 0.00 | 0.00 | 0.00 | 67 | 1014.3 |
| 20260503033324 | 6 | 263 | 0.0 | 0.0 | 0.00 | 0.00 | 0.00 | 66 | 1014.4 |
| 20260503032819 | 6 | 263 | 0.0 | 0.0 | 0.00 | 0.00 | 0.00 | 65 | 1014.4 |
| 20260503032330 | 6 | 263 | 0.0 | 0.0 | 0.00 | 0.00 | 0.00 | 65 | 1014.4 |
| 20260503031842 | 6 | 263 | 0.0 | 0.0 | 0.00 | 0.00 | 0.00 | 64 | 1014.4 |
| 20260503031338 | 6 | 263 | 0.0 | 0.0 | 0.00 | 0.00 | 0.00 | 64 | 1014.4 |
| 20260503030826 | 6 | 263 | 0.0 | 0.0 | 0.00 | 0.00 | 0.00 | 64 | 1014.4 |
| 20260503030332 | 6 | 263 | 0.0 | 0.0 | 0.00 | 0.00 | 0.00 | 64 | 1014.4 |
| 20260503025822 | 6 | 263 | 0.0 | 0.0 | 0.00 | 0.00 | 0.00 | 64 | 1014.4 |
| 20260503025332 | 6 | 263 | 0.0 | 0.0 | 0.00 | 0.00 | 0.00 | 65 | 1014.4 |
| 20260503024819 | 6 | 263 | 0.0 | 0.0 | 0.00 | 0.00 | 0.00 | 64 | 1014.5 |
| 20260503024327 | 6 | 263 | 0.0 | 0.0 | 0.00 | 0.00 | 0.00 | 65 | 1014.5 |
| 20260503023813 | 6 | 263 | 0.0 | 0.0 | 0.00 | 0.00 | 0.00 | 65 | 1014.5 |
| 20260503023334 | 6 | 263 | 0.0 | 0.0 | 0.00 | 0.00 | 0.00 | 65 | 1014.5 |
| 20260503022841 | 6 | 263 | 0.0 | 0.0 | 0.00 | 0.00 | 0.00 | 64 | 1014.5 |
| 20260503022315 | 6 | 263 | 0.0 | 0.0 | 0.00 | 0.00 | 0.00 | 64 | 1014.5 |
| 20260503021829 | 6 | 263 | 0.0 | 0.0 | 0.00 | 0.00 | 0.00 | 63 | 1014.3 |
| 20260503021329 | 6 | 263 | 0.0 | 0.0 | 0.00 | 0.00 | 0.00 | 62 | 1014.3 |
| 20260503020816 | 6 | 263 | 0.0 | 0.0 | 0.00 | 0.00 | 0.00 | 63 | 1014.3 |
| 20260503020328 | 6 | 263 | 0.0 | 0.0 | 0.00 | 0.00 | 0.00 | 62 | 1014.2 |
| 20260503015821 | 7 | 263 | 0.0 | 0.0 | 0.00 | 0.00 | 0.00 | 61 | 1014.2 |
| 20260503015342 | 7 | 263 | 0.0 | 0.0 | 0.00 | 0.00 | 0.00 | 60 | 1014.2 |
| 20260503014831 | 7 | 263 | 0.0 | 0.0 | 0.00 | 0.00 | 0.00 | 60 | 1014.2 |
| 20260503014326 | 7 | 263 | 0.0 | 0.0 | 0.00 | 0.00 | 0.00 | 59 | 1014.2 |
| 20260503013816 | 7 | 263 | 0.0 | 0.0 | 0.00 | 0.00 | 0.00 | 58 | 1014.2 |
| 20260503013322 | 7 | 263 | 0.0 | 0.0 | 0.00 | 0.00 | 0.00 | 58 | 1014.2 |
| 20260503012832 | 7 | 263 | 0.0 | 0.0 | 0.00 | 0.00 | 0.00 | 57 | 1014.2 |
| 20260503012326 | 7 | 263 | 0.0 | 0.0 | 0.00 | 0.00 | 0.00 | 54 | 1014.2 |
| 20260503011815 | 7 | 263 | 0.0 | 0.0 | 0.00 | 0.00 | 0.00 | 54 | 1014.2 |
| 20260503011337 | 7 | 263 | 0.0 | 0.0 | 0.00 | 0.00 | 0.00 | 53 | 1014.2 |
| 20260503010830 | 7 | 263 | 0.0 | 0.0 | 0.00 | 0.00 | 0.00 | 52 | 1014.2 |
| 20260503010323 | 7 | 263 | 0.0 | 0.0 | 0.00 | 0.00 | 0.00 | 52 | 1014.1 |
| 20260503005844 | 7 | 263 | 0.0 | 0.0 | 0.00 | 0.00 | 0.00 | 52 | 1014.1 |
| 20260503005330 | 8 | 263 | 0.0 | 0.0 | 0.00 | 0.00 | 0.00 | 51 | 1014.1 |
| 20260503004818 | 8 | 263 | 0.0 | 0.0 | 0.00 | 0.00 | 0.00 | 51 | 1014.1 |
| 20260503004325 | 8 | 263 | 0.0 | 0.0 | 0.00 | 0.00 | 0.00 | 50 | 1014.1 |
| 20260503003817 | 8 | 263 | 0.0 | 6.4 | 0.00 | 0.00 | 0.00 | 49 | 1014.1 |
| 20260503003332 | 8 | 263 | 1.6 | 6.4 | 0.00 | 0.00 | 0.00 | 48 | 1014.0 |
| 20260503002823 | 8 | 263 | 0.0 | 0.0 | 0.00 | 0.00 | 0.00 | 48 | 1014.0 |
| 20260503002333 | 8 | 263 | 0.0 | 0.0 | 0.00 | 0.00 | 0.00 | 49 | 1014.0 |
| 20260503001820 | 8 | 263 | 0.0 | 0.0 | 0.00 | 0.00 | 0.00 | 48 | 1014.0 |
| 20260503001313 | 8 | 263 | 0.0 | 0.0 | 0.00 | 0.00 | 0.00 | 47 | 1014.0 |
| 20260503000839 | 8 | 263 | 0.0 | 0.0 | 0.00 | 0.00 | 0.00 | 47 | 1014.0 |
| 20260503000325 | 8 | 263 | 0.0 | 0.0 | 0.00 | 0.03 | 0.00 | 48 | 1014.0 |
| 20260502235841 | 8 | 263 | 0.0 | 0.0 | 0.00 | 0.03 | 0.00 | 48 | 1014.0 |
| 20260502235328 | 8 | 263 | 0.0 | 3.2 | 0.00 | 0.03 | 0.00 | 48 | 1014.0 |
| 20260502234814 | 8 | 263 | 0.0 | 8.0 | 0.00 | 0.03 | 0.00 | 48 | 1014.0 |
| 20260502234324 | 8 | 263 | 1.6 | 11.3 | 0.00 | 0.03 | 0.00 | 47 | 1014.0 |
| 20260502233834 | 8 | 263 | 4.8 | 12.9 | 0.00 | 0.03 | 0.00 | 47 | 1014.0 |
| 20260502233349 | 8 | 258 | 6.4 | 12.9 | 0.00 | 0.03 | 0.00 | 46 | 1014.0 |
| 20260502232820 | 8 | 286 | 0.0 | 9.7 | 0.00 | 0.03 | 0.00 | 48 | 1014.0 |
| 20260502232318 | 8 | 286 | 0.0 | 14.5 | 0.00 | 0.03 | 0.00 | 47 | 1014.0 |
| 20260502231824 | 8 | 292 | 3.2 | 22.5 | 0.00 | 0.03 | 0.00 | 47 | 1014.1 |
| 20260502231339 | 8 | 257 | 9.7 | 22.5 | 0.00 | 0.03 | 0.00 | 46 | 1014.1 |
| 20260502230815 | 8 | 258 | 8.0 | 16.1 | 0.00 | 0.03 | 0.00 | 46 | 1014.1 |
| 20260502230341 | 8 | 251 | 4.8 | 16.1 | 0.00 | 0.03 | 0.00 | 46 | 1014.0 |
| 20260502225833 | 8 | 261 | 4.8 | 19.3 | 0.00 | 0.03 | 0.00 | 46 | 1014.0 |
| 20260502225344 | 9 | 257 | 3.2 | 14.5 | 0.00 | 0.03 | 0.00 | 46 | 1014.0 |
| 20260502224814 | 9 | 282 | 0.0 | 8.0 | 0.00 | 0.03 | 0.00 | 47 | 1014.1 |
| 20260502224329 | 9 | 283 | 0.0 | 11.3 | 0.00 | 0.03 | 0.00 | 47 | 1014.1 |
| 20260502223819 | 8 | 283 | 0.0 | 11.3 | 0.00 | 0.03 | 0.00 | 46 | 1014.1 |
| 20260502223329 | 8 | 294 | 1.6 | 14.5 | 0.00 | 0.03 | 0.00 | 47 | 1014.1 |
| 20260502222818 | 8 | 281 | 3.2 | 12.9 | 0.00 | 0.03 | 0.00 | 47 | 1014.1 |
| 20260502222314 | 8 | 283 | 3.2 | 12.9 | 0.00 | 0.03 | 0.00 | 47 | 1014.1 |
| 20260502221828 | 8 | 270 | 3.2 | 17.7 | 0.00 | 0.03 | 0.00 | 48 | 1014.2 |
| 20260502221348 | 8 | 273 | 11.3 | 17.7 | 0.00 | 0.03 | 0.00 | 46 | 1014.2 |
| 20260502220825 | 8 | 271 | 3.2 | 16.1 | 0.00 | 0.03 | 0.00 | 46 | 1014.2 |
| 20260502220329 | 8 | 247 | 3.2 | 16.1 | 0.00 | 0.03 | 0.00 | 47 | 1014.1 |